DLH9U EGLL-EDDF

Flight info

Callsign DLH9U
Flight time 1h 9m
Altitude 35000
Route BPK Q295 MATCH DCT REDFA DCT TACHA DCT NOLRU DCT DIXAT DIXAT1A
Aircraft A319/M-SDE3FGHIRWY/LB1

Departure

Time 2026-05-05 11:55
Airport London Heathrow Airport (EGLL)

Arrival

Time 2026-05-05 13:04
Airport Frankfurt Main Airport (EDDF)
Time Latitude Longitude Altitude Speed Heading
2026-05-05 11:11 51.46932 -0.48715 89 ft 0 kts 360°
2026-05-05 11:46 51.46916 -0.48715 90 ft 4 kts
2026-05-05 11:46 51.46891 -0.48726 89 ft 4 kts 33°
2026-05-05 11:46 51.46877 -0.48753 89 ft 3 kts 86°
2026-05-05 11:46 51.46876 -0.48766 87 ft 0 kts 89°
2026-05-05 11:51 51.46876 -0.48765 87 ft 0 kts 89°
2026-05-05 11:51 51.46873 -0.48759 89 ft 1 kts 126°
2026-05-05 11:51 51.46859 -0.48753 88 ft 5 kts 165°
2026-05-05 11:51 51.46824 -0.48750 86 ft 5 kts 181°
2026-05-05 11:52 51.46798 -0.48752 87 ft 0 kts 182°
2026-05-05 11:53 51.46782 -0.48752 89 ft 6 kts 180°
2026-05-05 11:53 51.46726 -0.48750 86 ft 9 kts 178°
2026-05-05 11:54 51.46662 -0.48748 86 ft 10 kts 180°
2026-05-05 11:54 51.46594 -0.48765 88 ft 10 kts 197°
2026-05-05 11:54 51.46522 -0.48784 86 ft 11 kts 168°
2026-05-05 11:54 51.46479 -0.48694 87 ft 11 kts 94°
2026-05-05 11:55 51.46478 -0.48553 86 ft 19 kts 90°
2026-05-05 11:55 51.46483 -0.47888 87 ft 99 kts 89°
2026-05-05 11:55 51.46490 -0.46377 119 ft 160 kts 85°
2026-05-05 11:55 51.46516 -0.44621 801 ft 161 kts 87°
2026-05-05 11:56 51.46538 -0.42809 1614 ft 167 kts 85°
2026-05-05 11:56 51.46800 -0.40909 2094 ft 186 kts 59°
2026-05-05 11:56 51.47650 -0.39165 2486 ft 212 kts 48°
2026-05-05 11:56 51.48661 -0.37252 3102 ft 237 kts 49°
2026-05-05 11:57 51.49769 -0.35134 4035 ft 248 kts 49°
2026-05-05 11:57 51.50885 -0.32986 5145 ft 253 kts 50°
2026-05-05 11:57 51.52008 -0.30737 5756 ft 262 kts 57°
2026-05-05 11:57 51.52763 -0.28038 5984 ft 265 kts 70°
2026-05-05 11:58 51.53383 -0.25182 6004 ft 262 kts 71°
2026-05-05 11:58 51.53945 -0.22453 6006 ft 263 kts 72°
2026-05-05 11:58 51.54755 -0.19835 6007 ft 263 kts 48°
2026-05-05 11:58 51.56440 -0.18277 6016 ft 265 kts 16°
2026-05-05 11:59 51.58146 -0.17747 6120 ft 270 kts 13°
2026-05-05 11:59 51.59975 -0.17000 7144 ft 271 kts 14°
2026-05-05 11:59 51.61815 -0.16327 8211 ft 274 kts 13°
2026-05-05 11:59 51.63681 -0.15639 9209 ft 279 kts 13°
2026-05-05 12:00 51.65590 -0.14884 10138 ft 285 kts 13°
2026-05-05 12:00 51.67589 -0.14044 10561 ft 309 kts 14°
2026-05-05 12:00 51.69741 -0.13077 10913 ft 332 kts 18°
2026-05-05 12:00 51.71850 -0.11404 11520 ft 344 kts 34°
2026-05-05 12:01 51.73664 -0.08799 12350 ft 350 kts 49°
2026-05-05 12:01 51.75004 -0.05486 13166 ft 355 kts 64°
2026-05-05 12:01 51.75738 -0.01675 13975 ft 360 kts 79°
2026-05-05 12:01 51.76077 0.02353 14647 ft 363 kts 82°
2026-05-05 12:02 51.76408 0.06405 15391 ft 366 kts 82°
2026-05-05 12:02 51.76743 0.10513 16129 ft 370 kts 82°
2026-05-05 12:02 51.77080 0.14656 16830 ft 375 kts 82°
2026-05-05 12:02 51.77422 0.18855 17532 ft 379 kts 82°
2026-05-05 12:03 51.77765 0.23091 18232 ft 383 kts 82°
2026-05-05 12:03 51.78289 0.27332 18826 ft 388 kts 75°
2026-05-05 12:03 51.78977 0.31566 19431 ft 392 kts 76°
2026-05-05 12:03 51.79669 0.35845 20036 ft 396 kts 76°
2026-05-05 12:04 51.80373 0.40233 20645 ft 400 kts 76°
2026-05-05 12:04 51.81068 0.44615 21225 ft 405 kts 76°
2026-05-05 12:04 51.81769 0.49049 21732 ft 411 kts 77°
2026-05-05 12:04 51.82236 0.52021 22111 ft 413 kts 77°
2026-05-05 12:05 51.82946 0.56541 22724 ft 416 kts 77°
2026-05-05 12:05 51.83657 0.61082 23290 ft 419 kts 77°
2026-05-05 12:05 51.84376 0.65679 23789 ft 422 kts 77°
2026-05-05 12:05 51.85104 0.70347 24252 ft 425 kts 77°
2026-05-05 12:06 51.85833 0.75013 24700 ft 428 kts 77°
2026-05-05 12:06 51.86563 0.79697 25141 ft 432 kts 77°
2026-05-05 12:06 51.87297 0.84429 25571 ft 435 kts 78°
2026-05-05 12:06 51.88032 0.89184 25999 ft 438 kts 78°
2026-05-05 12:07 51.88774 0.93997 26426 ft 441 kts 78°
2026-05-05 12:07 51.89519 0.98838 26847 ft 445 kts 78°
2026-05-05 12:07 51.90274 1.03770 27280 ft 448 kts 78°
2026-05-05 12:07 51.91022 1.08674 27690 ft 451 kts 78°
2026-05-05 12:08 51.91777 1.13623 28099 ft 454 kts 78°
2026-05-05 12:08 51.92526 1.18541 28500 ft 457 kts 78°
2026-05-05 12:08 51.93296 1.23620 28888 ft 460 kts 79°
2026-05-05 12:08 51.94058 1.28666 29267 ft 463 kts 79°
2026-05-05 12:09 51.94811 1.33674 29626 ft 465 kts 79°
2026-05-05 12:09 51.95588 1.38844 30003 ft 468 kts 79°
2026-05-05 12:09 51.96360 1.44007 30302 ft 471 kts 79°
2026-05-05 12:09 51.97130 1.49186 30644 ft 472 kts 79°
2026-05-05 12:10 51.97896 1.54352 31105 ft 471 kts 79°
2026-05-05 12:10 51.98660 1.59514 31547 ft 470 kts 79°
2026-05-05 12:10 51.99421 1.64656 31975 ft 470 kts 78°
2026-05-05 12:10 52.00183 1.69823 32405 ft 470 kts 78°
2026-05-05 12:11 52.00937 1.74966 32838 ft 469 kts 78°
2026-05-05 12:11 52.01688 1.80118 33285 ft 469 kts 78°
2026-05-05 12:11 52.02436 1.85278 33711 ft 469 kts 78°
2026-05-05 12:11 52.03181 1.90433 34125 ft 469 kts 78°
2026-05-05 12:12 52.03924 1.95583 34486 ft 468 kts 78°
2026-05-05 12:12 52.04664 2.00715 34730 ft 468 kts 78°
2026-05-05 12:12 52.05404 2.05866 34926 ft 467 kts 78°
2026-05-05 12:12 52.06137 2.11009 34987 ft 466 kts 78°
2026-05-05 12:13 52.07607 2.21321 34986 ft 465 kts 78°
2026-05-05 12:13 52.09060 2.31560 34986 ft 465 kts 78°
2026-05-05 12:14 52.10494 2.41812 34986 ft 465 kts 78°
2026-05-05 12:14 52.11968 2.52055 34986 ft 465 kts 76°
2026-05-05 12:15 52.13835 2.62129 34981 ft 466 kts 73°
2026-05-05 12:15 52.15881 2.72143 34978 ft 465 kts 73°
2026-05-05 12:16 52.17849 2.82184 34973 ft 465 kts 74°
2026-05-05 12:16 52.19732 2.92265 34972 ft 465 kts 74°
2026-05-05 12:17 52.21593 3.02371 34955 ft 466 kts 75°
2026-05-05 12:17 52.23465 3.12493 34954 ft 466 kts 75°
2026-05-05 12:18 52.24431 3.22858 34970 ft 462 kts 92°
2026-05-05 12:18 52.23423 3.33129 34950 ft 456 kts 111°
2026-05-05 12:19 52.21156 3.42759 34953 ft 455 kts 114°
2026-05-05 12:19 52.18859 3.52391 34948 ft 456 kts 114°
2026-05-05 12:20 52.16539 3.62065 34944 ft 456 kts 114°
2026-05-05 12:20 52.14214 3.71665 34947 ft 456 kts 115°
2026-05-05 12:21 52.11876 3.81275 34939 ft 456 kts 115°
2026-05-05 12:21 52.09538 3.90851 34940 ft 456 kts 115°
2026-05-05 12:22 52.07189 4.00418 34922 ft 455 kts 116°
2026-05-05 12:22 52.04829 4.09981 34928 ft 455 kts 116°
2026-05-05 12:23 52.02455 4.19572 34909 ft 455 kts 116°
2026-05-05 12:23 52.00086 4.29110 34906 ft 455 kts 116°
2026-05-05 12:24 51.97713 4.38606 34906 ft 455 kts 116°
2026-05-05 12:24 51.95719 4.46569 34894 ft 455 kts 116°
2026-05-05 12:25 51.92919 4.57716 34911 ft 453 kts 117°
2026-05-05 12:25 51.90516 4.67236 34915 ft 453 kts 117°
2026-05-05 12:26 51.88127 4.76669 34931 ft 452 kts 117°
2026-05-05 12:26 51.85719 4.86119 34922 ft 452 kts 117°
2026-05-05 12:27 51.83312 4.95501 34910 ft 452 kts 117°
2026-05-05 12:27 51.81303 5.03300 34915 ft 452 kts 117°
2026-05-05 12:28 51.78474 5.14278 34913 ft 453 kts 117°
2026-05-05 12:28 51.76048 5.23650 34906 ft 453 kts 117°
2026-05-05 12:29 51.73990 5.31571 34905 ft 453 kts 117°
2026-05-05 12:29 51.71546 5.40933 34905 ft 453 kts 118°
2026-05-05 12:30 51.69087 5.50306 34895 ft 454 kts 118°
2026-05-05 12:30 51.66625 5.59662 34896 ft 454 kts 118°
2026-05-05 12:31 51.64153 5.69022 34900 ft 453 kts 118°
2026-05-05 12:31 51.61684 5.78335 34908 ft 453 kts 118°
2026-05-05 12:32 51.59203 5.87628 34895 ft 452 kts 118°
2026-05-05 12:32 51.56692 5.96987 34901 ft 452 kts 118°
2026-05-05 12:33 51.54194 6.06253 34902 ft 452 kts 118°
2026-05-05 12:33 51.51689 6.15521 34902 ft 452 kts 118°
2026-05-05 12:34 51.49206 6.24791 34901 ft 453 kts 117°
2026-05-05 12:34 51.46882 6.34204 34881 ft 455 kts 116°
2026-05-05 12:35 51.44620 6.43692 34880 ft 456 kts 116°
2026-05-05 12:35 51.42309 6.53246 34873 ft 457 kts 116°
2026-05-05 12:36 51.39967 6.62708 34867 ft 457 kts 116°
2026-05-05 12:36 51.37595 6.72176 34844 ft 457 kts 117°
2026-05-05 12:37 51.35227 6.81603 34521 ft 457 kts 117°
2026-05-05 12:37 51.34033 6.86350 33521 ft 462 kts 117°
2026-05-05 12:37 51.32828 6.91136 32363 ft 468 kts 116°
2026-05-05 12:38 51.31603 6.95998 31212 ft 473 kts 116°
2026-05-05 12:38 51.30361 7.00914 30007 ft 478 kts 115°
2026-05-05 12:38 51.29095 7.05800 28861 ft 477 kts 118°
2026-05-05 12:38 51.27446 7.10370 27498 ft 473 kts 128°
2026-05-05 12:39 51.25348 7.14295 26852 ft 456 kts 138°
2026-05-05 12:39 51.22998 7.17525 26366 ft 439 kts 147°
2026-05-05 12:39 51.20446 7.20089 25707 ft 428 kts 155°
2026-05-05 12:39 51.17774 7.22236 25001 ft 422 kts 156°
2026-05-05 12:40 51.15154 7.24315 24307 ft 418 kts 156°
2026-05-05 12:40 51.12575 7.26348 23640 ft 413 kts 155°
2026-05-05 12:40 51.10005 7.28387 23096 ft 410 kts 155°
2026-05-05 12:40 51.07452 7.30461 22828 ft 412 kts 154°
2026-05-05 12:41 51.04918 7.32547 22556 ft 411 kts 154°
2026-05-05 12:41 51.02386 7.34642 22291 ft 410 kts 154°
2026-05-05 12:41 50.99857 7.36736 22024 ft 409 kts 154°
2026-05-05 12:41 50.97344 7.38819 21760 ft 407 kts 154°
2026-05-05 12:42 50.94837 7.40890 21499 ft 406 kts 154°
2026-05-05 12:42 50.92329 7.42955 21240 ft 405 kts 154°
2026-05-05 12:42 50.89799 7.45031 20979 ft 404 kts 154°
2026-05-05 12:42 50.87306 7.47071 20724 ft 403 kts 154°
2026-05-05 12:43 50.84822 7.49103 20470 ft 402 kts 154°
2026-05-05 12:43 50.82341 7.51128 20199 ft 401 kts 154°
2026-05-05 12:43 50.79872 7.53142 19955 ft 400 kts 154°
2026-05-05 12:43 50.77399 7.55157 19708 ft 398 kts 154°
2026-05-05 12:44 50.74944 7.57155 19466 ft 397 kts 154°
2026-05-05 12:44 50.72482 7.59152 19228 ft 396 kts 154°
2026-05-05 12:44 50.70043 7.61130 18986 ft 395 kts 154°
2026-05-05 12:44 50.67593 7.63115 18750 ft 394 kts 154°
2026-05-05 12:45 50.65150 7.65090 18514 ft 393 kts 154°
2026-05-05 12:45 50.62722 7.67047 18284 ft 392 kts 154°
2026-05-05 12:45 50.60300 7.69002 18023 ft 390 kts 154°
2026-05-05 12:45 50.57893 7.70946 17751 ft 388 kts 154°
2026-05-05 12:46 50.55493 7.72884 17486 ft 386 kts 154°
2026-05-05 12:46 50.53104 7.74808 17221 ft 385 kts 154°
2026-05-05 12:46 50.50727 7.76716 16952 ft 383 kts 154°
2026-05-05 12:46 50.48322 7.78647 16695 ft 382 kts 154°
2026-05-05 12:47 50.45968 7.80548 16442 ft 381 kts 153°
2026-05-05 12:47 50.43844 7.83010 16176 ft 382 kts 136°
2026-05-05 12:47 50.42291 7.86377 15917 ft 383 kts 118°
2026-05-05 12:47 50.41376 7.90305 15662 ft 385 kts 109°
2026-05-05 12:48 50.40582 7.94298 15413 ft 383 kts 109°
2026-05-05 12:48 50.39796 7.98291 15158 ft 382 kts 109°
2026-05-05 12:48 50.39019 8.02222 14911 ft 381 kts 109°
2026-05-05 12:48 50.38226 8.06205 14675 ft 379 kts 109°
2026-05-05 12:49 50.37436 8.10147 14438 ft 378 kts 109°
2026-05-05 12:49 50.36651 8.14060 14196 ft 376 kts 109°
2026-05-05 12:49 50.35867 8.17966 13964 ft 375 kts 109°
2026-05-05 12:49 50.35086 8.21837 13728 ft 373 kts 109°
2026-05-05 12:50 50.34301 8.25701 13472 ft 371 kts 109°
2026-05-05 12:50 50.33517 8.29539 13204 ft 369 kts 109°
2026-05-05 12:50 50.32743 8.33338 12636 ft 364 kts 109°
2026-05-05 12:50 50.31970 8.37146 12006 ft 361 kts 109°
2026-05-05 12:51 50.31212 8.40879 11385 ft 358 kts 109°
2026-05-05 12:51 50.30466 8.44546 10761 ft 355 kts 109°
2026-05-05 12:51 50.29715 8.48224 10224 ft 350 kts 109°
2026-05-05 12:51 50.28990 8.51763 10099 ft 333 kts 109°
2026-05-05 12:52 50.28307 8.55102 9965 ft 312 kts 109°
2026-05-05 12:52 50.27664 8.58230 9835 ft 294 kts 109°
2026-05-05 12:52 50.27045 8.61225 9466 ft 287 kts 109°
2026-05-05 12:52 50.26433 8.64168 9100 ft 284 kts 109°
2026-05-05 12:53 50.25823 8.67100 8712 ft 282 kts 109°
2026-05-05 12:53 50.25216 8.70011 8304 ft 281 kts 109°
2026-05-05 12:53 50.24605 8.72931 7901 ft 279 kts 109°
2026-05-05 12:53 50.24207 8.74840 7642 ft 278 kts 109°
2026-05-05 12:54 50.23026 8.80546 6903 ft 274 kts 108°
2026-05-05 12:54 50.22606 8.83472 6654 ft 276 kts 100°
2026-05-05 12:54 50.22438 8.86457 6421 ft 276 kts 92°
2026-05-05 12:55 50.22511 8.89447 6174 ft 276 kts 85°
2026-05-05 12:55 50.22830 8.92399 5922 ft 276 kts 77°
2026-05-05 12:55 50.23386 8.95262 5661 ft 275 kts 71°
2026-05-05 12:55 50.24045 8.98069 5403 ft 275 kts 71°
2026-05-05 12:56 50.24699 9.00865 5154 ft 273 kts 71°
2026-05-05 12:56 50.25350 9.03651 5006 ft 273 kts 71°
2026-05-05 12:56 50.25900 9.06476 4999 ft 272 kts 83°
2026-05-05 12:56 50.25804 9.09341 4999 ft 252 kts 107°
2026-05-05 12:57 50.25078 9.11695 5000 ft 232 kts 128°
2026-05-05 12:57 50.23947 9.13352 5004 ft 223 kts 149°
2026-05-05 12:57 50.22501 9.14305 5005 ft 229 kts 169°
2026-05-05 12:57 50.20913 9.14407 5004 ft 230 kts 189°
2026-05-05 12:58 50.19391 9.13621 5002 ft 232 kts 209°
2026-05-05 12:58 50.18142 9.12037 5003 ft 234 kts 230°
2026-05-05 12:58 50.17331 9.09843 5002 ft 235 kts 250°
2026-05-05 12:58 50.16868 9.07394 5003 ft 236 kts 253°
2026-05-05 12:59 50.16405 9.04944 5004 ft 236 kts 252°
2026-05-05 12:59 50.15934 9.02483 5001 ft 236 kts 252°
2026-05-05 12:59 50.15467 9.00046 5001 ft 235 kts 252°
2026-05-05 13:00 50.14513 8.95163 5002 ft 236 kts 250°
2026-05-05 13:00 50.13968 8.92758 5003 ft 236 kts 249°
2026-05-05 13:01 50.12238 8.85638 4877 ft 228 kts 248°
2026-05-05 13:01 50.11676 8.83289 4597 ft 230 kts 248°
2026-05-05 13:01 50.11038 8.80572 4283 ft 235 kts 249°
2026-05-05 13:01 50.10524 8.78472 3830 ft 244 kts 247°
2026-05-05 13:02 50.09826 8.75993 3323 ft 246 kts 244°
2026-05-05 13:02 50.09075 8.73700 3161 ft 233 kts 241°
2026-05-05 13:02 50.08286 8.71542 2854 ft 226 kts 239°
2026-05-05 13:02 50.07476 8.69513 2441 ft 218 kts 239°
2026-05-05 13:03 50.06733 8.67415 1896 ft 211 kts 243°
2026-05-05 13:03 50.06154 8.65418 1599 ft 196 kts 247°
2026-05-05 13:03 50.05680 8.63494 1344 ft 185 kts 249°
2026-05-05 13:03 50.05220 8.61641 996 ft 176 kts 248°
2026-05-05 13:04 50.04826 8.59967 716 ft 156 kts 250°
2026-05-05 13:04 50.04451 8.58436 406 ft 143 kts 249°
2026-05-05 13:04 50.04150 8.57173 368 ft 102 kts 250°
2026-05-05 13:04 50.03996 8.56489 359 ft 17 kts 273°
2026-05-05 13:05 50.03995 8.56342 352 ft 12 kts 276°
2026-05-05 13:05 50.04008 8.56234 351 ft 11 kts 282°
2026-05-05 13:05 50.04035 8.56144 356 ft 10 kts 323°
2026-05-05 13:05 50.04093 8.56153 355 ft 8 kts 41°